Hourly Data Report for October 01, 2015

All times are specified in Local Standard Time (LST). Add 1 hour to adjust for Daylight Saving Time where and when it is observed.

HALL BEACH A
NUNAVUT

68°46'33.000" N
81°14'33.000" W
9.10 m
2402354
71293
YUX

Download Data

Hourly Data (October 2015)
Hourly Data Report for October 1, 2015
Temp Definition
°C
Dew Point Temp Definition
°C
Rel Hum Definition
%
Wind Dir Definition
10's deg

Wind Spd Definition
km/h
Visibility Definition
km
Stn Press Definition
kPa
Hmdx Definition


Wind Chill Definition


Weather Definition


TIME
00:00 Legend Double Dagger 0.2 -2.0 85 21 35 16.1 101.25     LegendNANA
01:00 Legend Double Dagger 0.6 -1.4 86 20 46 16.1 101.18     LegendNANA
02:00 Legend Double Dagger 1.2 -0.8 86 20 41 16.1 101.10     LegendNANA
03:00 Legend Double Dagger 1.6 -0.3 87 21 41 12.9 101.05     Rain
04:00 Legend Double Dagger 1.7 1.0 95 19 52 8.1 100.85     Freezing Rain,Fog
05:00 Legend Double Dagger 1.9 1.3 96 19 45 8.1 100.78     Rain,Fog
06:00 Legend Double Dagger 2.3 1.7 96 20 45 6.4 100.70     Rain,Fog
07:00 Legend Double Dagger 2.4 1.8 96 20 43 11.3 100.61     Rain
08:00 Legend Double Dagger 2.6 1.6 93 21 43 16.1 100.55     Rain
09:00 Legend Double Dagger 3.0 2.0 93 21 43 16.1 100.42     LegendNANA
10:00 Legend Double Dagger 3.3 2.3 93 21 37 16.1 100.42     LegendNANA
11:00 Legend Double Dagger 3.4 2.4 93 21 32 16.1 100.33     LegendNANA
12:00 Legend Double Dagger 3.4 2.4 93 21 37 16.1 100.29     LegendNANA
13:00 Legend Double Dagger 3.8 2.8 93 21 28 16.1 100.24     LegendNANA
14:00 Legend Double Dagger 3.7 2.8 94 20 24 16.1 100.18     LegendNANA
15:00 Legend Double Dagger 3.4 2.7 95 22 26 16.1 100.21     LegendNANA
16:00 Legend Double Dagger 4.1 3.1 93 25 30 16.1 100.23     LegendNANA
17:00 Legend Double Dagger 4.3 3.1 92 24 24 16.1 100.28     LegendNANA
18:00 Legend Double Dagger 4.7 3.6 92 25 17 16.1 100.37     LegendNANA
19:00 Legend Double Dagger 3.6 2.7 94 29 52 16.1 100.45     LegendNANA
20:00 Legend Double Dagger 2.9 0.8 86 29 67 16.1 100.61     LegendNANA
21:00 Legend Double Dagger 2.6 0.6 87 29 50 16.1 100.78     LegendNANA
22:00 Legend Double Dagger 2.7 -0.8 78 29 61 16.1 100.88     LegendNANA
23:00 Legend Double Dagger 1.8 -1.2 81 29 63 16.1 100.91     LegendNANA

Notes on Data Quality.

Legend

  • E = Estimated
  • M = Missing
  • NA = Not Available
  • ‡ = Partner data that is not subject to review by the National Climate Archives
Date modified: